#datetime,building,power
2023-05-19T00:00:00,plm,9.48
2023-05-19T00:01:00,plm,9.55
2023-05-19T00:02:00,plm,9.50
2023-05-19T00:03:00,plm,9.61
2023-05-19T00:04:00,plm,8.88
2023-05-19T00:05:00,plm,8.95
2023-05-19T00:06:00,plm,9.04
2023-05-19T00:07:00,plm,9.01
2023-05-19T00:08:00,plm,8.99
2023-05-19T00:09:00,plm,9.65
2023-05-19T00:10:00,plm,10.07
2023-05-19T00:11:00,plm,10.08
2023-05-19T00:12:00,plm,9.95
2023-05-19T00:13:00,plm,10.00
2023-05-19T00:14:00,plm,9.93
2023-05-19T00:15:00,plm,10.10
2023-05-19T00:16:00,plm,10.00
2023-05-19T00:17:00,plm,10.41
2023-05-19T00:18:00,plm,9.92
2023-05-19T00:19:00,plm,9.11
2023-05-19T00:20:00,plm,9.24
2023-05-19T00:21:00,plm,10.90
2023-05-19T00:22:00,plm,10.89
2023-05-19T00:23:00,plm,10.93
2023-05-19T00:24:00,plm,11.77
2023-05-19T00:25:00,plm,23.10
2023-05-19T00:26:00,plm,11.85
2023-05-19T00:27:00,plm,11.81
2023-05-19T00:28:00,plm,11.82
2023-05-19T00:29:00,plm,11.38
2023-05-19T00:30:00,plm,10.97
2023-05-19T00:31:00,plm,10.97
2023-05-19T00:32:00,plm,10.89
2023-05-19T00:33:00,plm,10.90
2023-05-19T00:34:00,plm,10.82
2023-05-19T00:35:00,plm,11.51
2023-05-19T00:36:00,plm,11.44
2023-05-19T00:37:00,plm,21.00
2023-05-19T00:38:00,plm,20.66
2023-05-19T00:39:00,plm,20.43
2023-05-19T00:40:00,plm,11.53
2023-05-19T00:41:00,plm,10.88
2023-05-19T00:42:00,plm,10.91
2023-05-19T00:43:00,plm,10.75
2023-05-19T00:44:00,plm,10.74
2023-05-19T00:45:00,plm,10.77
2023-05-19T00:46:00,plm,10.71
2023-05-19T00:47:00,plm,9.27
2023-05-19T00:48:00,plm,10.88
2023-05-19T00:49:00,plm,9.55
2023-05-19T00:50:00,plm,9.37
2023-05-19T00:51:00,plm,11.03
2023-05-19T00:52:00,plm,10.94
2023-05-19T00:53:00,plm,15.39
2023-05-19T00:54:00,plm,14.61
2023-05-19T00:55:00,plm,14.00
2023-05-19T00:56:00,plm,13.97
2023-05-19T00:57:00,plm,13.99
2023-05-19T00:58:00,plm,14.00
2023-05-19T00:59:00,plm,13.88
2023-05-19T01:00:00,plm,13.88
2023-05-19T01:01:00,plm,13.85
2023-05-19T01:02:00,plm,13.56
2023-05-19T01:03:00,plm,13.64
2023-05-19T01:04:00,plm,13.60
2023-05-19T01:05:00,plm,13.48
2023-05-19T01:06:00,plm,13.49
2023-05-19T01:07:00,plm,13.64
2023-05-19T01:08:00,plm,13.61
2023-05-19T01:09:00,plm,13.56
2023-05-19T01:10:00,plm,13.59
2023-05-19T01:11:00,plm,13.99
2023-05-19T01:12:00,plm,13.96
2023-05-19T01:13:00,plm,14.09
2023-05-19T01:14:00,plm,14.12
2023-05-19T01:15:00,plm,14.10
2023-05-19T01:16:00,plm,14.14
2023-05-19T01:17:00,plm,14.00
2023-05-19T01:18:00,plm,13.27
2023-05-19T01:19:00,plm,13.29
2023-05-19T01:20:00,plm,13.25
2023-05-19T01:21:00,plm,13.23
2023-05-19T01:22:00,plm,13.41
2023-05-19T01:23:00,plm,13.34
2023-05-19T01:24:00,plm,13.31
2023-05-19T01:25:00,plm,13.39
2023-05-19T01:26:00,plm,13.36
2023-05-19T01:27:00,plm,13.63
2023-05-19T01:28:00,plm,14.12
2023-05-19T01:29:00,plm,14.08
2023-05-19T01:30:00,plm,14.72
2023-05-19T01:31:00,plm,14.24
2023-05-19T01:32:00,plm,14.19
2023-05-19T01:33:00,plm,14.24
2023-05-19T01:34:00,plm,14.25
2023-05-19T01:35:00,plm,14.28
2023-05-19T01:36:00,plm,13.53
2023-05-19T01:37:00,plm,14.13
2023-05-19T01:38:00,plm,14.18
2023-05-19T01:39:00,plm,14.12
2023-05-19T01:40:00,plm,14.13
2023-05-19T01:41:00,plm,14.18
2023-05-19T01:42:00,plm,14.00
2023-05-19T01:43:00,plm,14.00
2023-05-19T01:44:00,plm,14.09
2023-05-19T01:45:00,plm,13.29
2023-05-19T01:46:00,plm,13.36
2023-05-19T01:47:00,plm,13.46
2023-05-19T01:48:00,plm,13.38
2023-05-19T01:49:00,plm,13.41
2023-05-19T01:50:00,plm,14.11
2023-05-19T01:51:00,plm,14.11
2023-05-19T01:52:00,plm,14.18
2023-05-19T01:53:00,plm,14.10
2023-05-19T01:54:00,plm,14.11
2023-05-19T01:55:00,plm,13.51
2023-05-19T01:56:00,plm,13.49
2023-05-19T01:57:00,plm,13.51
2023-05-19T01:58:00,plm,13.60
2023-05-19T01:59:00,plm,13.47
2023-05-19T02:00:00,plm,13.47
2023-05-19T02:01:00,plm,13.47
2023-05-19T02:02:00,plm,14.28
2023-05-19T02:03:00,plm,15.42
2023-05-19T02:04:00,plm,15.58
2023-05-19T02:05:00,plm,11.20
2023-05-19T02:06:00,plm,11.11
2023-05-19T02:07:00,plm,9.25
2023-05-19T02:08:00,plm,9.34
2023-05-19T02:09:00,plm,9.27
2023-05-19T02:10:00,plm,9.50
2023-05-19T02:11:00,plm,9.71
2023-05-19T02:12:00,plm,9.53
2023-05-19T02:13:00,plm,10.38
2023-05-19T02:14:00,plm,10.16
2023-05-19T02:15:00,plm,9.82
2023-05-19T02:16:00,plm,9.69
2023-05-19T02:17:00,plm,9.34
2023-05-19T02:18:00,plm,9.25
2023-05-19T02:19:00,plm,9.47
2023-05-19T02:20:00,plm,9.28
2023-05-19T02:21:00,plm,9.29
2023-05-19T02:22:00,plm,9.22
2023-05-19T02:23:00,plm,18.65
2023-05-19T02:24:00,plm,18.39
2023-05-19T02:25:00,plm,9.41
2023-05-19T02:26:00,plm,9.22
2023-05-19T02:27:00,plm,9.31
2023-05-19T02:28:00,plm,9.12
2023-05-19T02:29:00,plm,9.33
2023-05-19T02:30:00,plm,9.32
2023-05-19T02:31:00,plm,9.27
2023-05-19T02:32:00,plm,9.36
2023-05-19T02:33:00,plm,9.35
2023-05-19T02:34:00,plm,9.48
2023-05-19T02:35:00,plm,9.54
2023-05-19T02:36:00,plm,9.44
2023-05-19T02:37:00,plm,9.39
2023-05-19T02:38:00,plm,9.03
2023-05-19T02:39:00,plm,9.01
2023-05-19T02:40:00,plm,9.07
2023-05-19T02:41:00,plm,8.97
2023-05-19T02:42:00,plm,8.90
2023-05-19T02:43:00,plm,8.82
2023-05-19T02:44:00,plm,8.88
2023-05-19T02:45:00,plm,8.96
2023-05-19T02:46:00,plm,9.02
2023-05-19T02:47:00,plm,9.09
2023-05-19T02:48:00,plm,8.99
2023-05-19T02:49:00,plm,8.99
2023-05-19T02:50:00,plm,9.07
2023-05-19T02:51:00,plm,9.00
2023-05-19T02:52:00,plm,17.99
2023-05-19T02:53:00,plm,18.16
2023-05-19T02:54:00,plm,18.03
2023-05-19T02:55:00,plm,18.34
2023-05-19T02:56:00,plm,18.00
2023-05-19T02:57:00,plm,18.22
2023-05-19T02:58:00,plm,18.03
2023-05-19T02:59:00,plm,18.76
2023-05-19T03:00:00,plm,18.96
2023-05-19T03:01:00,plm,18.94
2023-05-19T03:02:00,plm,18.79
2023-05-19T03:03:00,plm,18.76
2023-05-19T03:04:00,plm,18.81
2023-05-19T03:05:00,plm,18.94
2023-05-19T03:06:00,plm,18.96
2023-05-19T03:07:00,plm,18.88
2023-05-19T03:08:00,plm,18.25
2023-05-19T03:09:00,plm,18.12
2023-05-19T03:10:00,plm,18.21
2023-05-19T03:11:00,plm,18.28
2023-05-19T03:12:00,plm,18.14
2023-05-19T03:13:00,plm,18.08
2023-05-19T03:14:00,plm,18.03
2023-05-19T03:15:00,plm,18.08
2023-05-19T03:16:00,plm,18.32
2023-05-19T03:17:00,plm,19.69
2023-05-19T03:18:00,plm,19.73
2023-05-19T03:19:00,plm,19.81
2023-05-19T03:20:00,plm,18.56
2023-05-19T03:21:00,plm,18.16
2023-05-19T03:22:00,plm,17.93
2023-05-19T03:23:00,plm,17.90
2023-05-19T03:24:00,plm,17.82
2023-05-19T03:25:00,plm,17.91
2023-05-19T03:26:00,plm,17.95
2023-05-19T03:27:00,plm,27.52
2023-05-19T03:28:00,plm,26.76
2023-05-19T03:29:00,plm,17.83
2023-05-19T03:30:00,plm,28.85
2023-05-19T03:31:00,plm,17.73
2023-05-19T03:32:00,plm,13.39
2023-05-19T03:33:00,plm,13.28
2023-05-19T03:34:00,plm,13.34
2023-05-19T03:35:00,plm,13.27
2023-05-19T03:36:00,plm,17.72
2023-05-19T03:37:00,plm,17.75
2023-05-19T03:38:00,plm,17.63
2023-05-19T03:39:00,plm,17.64
2023-05-19T03:40:00,plm,18.35
2023-05-19T03:41:00,plm,18.26
2023-05-19T03:42:00,plm,18.24
2023-05-19T03:43:00,plm,18.27
2023-05-19T03:44:00,plm,29.15
2023-05-19T03:45:00,plm,18.36
2023-05-19T03:46:00,plm,18.32
2023-05-19T03:47:00,plm,18.62
2023-05-19T03:48:00,plm,17.89
2023-05-19T03:49:00,plm,17.77
2023-05-19T03:50:00,plm,18.08
2023-05-19T03:51:00,plm,17.87
2023-05-19T03:52:00,plm,17.93
2023-05-19T03:53:00,plm,17.93
2023-05-19T03:54:00,plm,17.83
2023-05-19T03:55:00,plm,17.77
2023-05-19T03:56:00,plm,18.02
2023-05-19T03:57:00,plm,18.05
2023-05-19T03:58:00,plm,18.15
2023-05-19T03:59:00,plm,18.21
2023-05-19T04:00:00,plm,17.95
2023-05-19T04:01:00,plm,18.03
2023-05-19T04:02:00,plm,17.87
2023-05-19T04:03:00,plm,18.06
2023-05-19T04:04:00,plm,18.16
2023-05-19T04:05:00,plm,17.91
2023-05-19T04:06:00,plm,17.92
2023-05-19T04:07:00,plm,18.25
2023-05-19T04:08:00,plm,14.13
2023-05-19T04:09:00,plm,18.21
2023-05-19T04:10:00,plm,18.44
2023-05-19T04:11:00,plm,18.30
2023-05-19T04:12:00,plm,21.51
2023-05-19T04:13:00,plm,9.75
2023-05-19T04:14:00,plm,13.61
2023-05-19T04:15:00,plm,18.38
2023-05-19T04:16:00,plm,14.31
2023-05-19T04:17:00,plm,14.38
2023-05-19T04:18:00,plm,19.53
2023-05-19T04:19:00,plm,19.63
2023-05-19T04:20:00,plm,11.42
2023-05-19T04:21:00,plm,15.26
2023-05-19T04:22:00,plm,15.46
2023-05-19T04:23:00,plm,15.47
2023-05-19T04:24:00,plm,14.30
2023-05-19T04:25:00,plm,18.38
2023-05-19T04:26:00,plm,14.33
2023-05-19T04:27:00,plm,14.36
2023-05-19T04:28:00,plm,10.38
2023-05-19T04:29:00,plm,9.64
2023-05-19T04:30:00,plm,9.01
2023-05-19T04:31:00,plm,9.11
2023-05-19T04:32:00,plm,9.16
2023-05-19T04:33:00,plm,17.99
2023-05-19T04:34:00,plm,17.85
2023-05-19T04:35:00,plm,18.59
2023-05-19T04:36:00,plm,18.53
2023-05-19T04:37:00,plm,17.84
2023-05-19T04:38:00,plm,17.90
2023-05-19T04:39:00,plm,17.80
2023-05-19T04:40:00,plm,13.69
2023-05-19T04:41:00,plm,22.96
2023-05-19T04:42:00,plm,26.76
2023-05-19T04:43:00,plm,17.69
2023-05-19T04:44:00,plm,9.57
2023-05-19T04:45:00,plm,13.55
2023-05-19T04:46:00,plm,17.62
2023-05-19T04:47:00,plm,17.67
2023-05-19T04:48:00,plm,9.45
2023-05-19T04:49:00,plm,13.41
2023-05-19T04:50:00,plm,17.65
2023-05-19T04:51:00,plm,13.60
2023-05-19T04:52:00,plm,13.67
2023-05-19T04:53:00,plm,13.56
2023-05-19T04:54:00,plm,13.70
2023-05-19T04:55:00,plm,13.76
2023-05-19T04:56:00,plm,13.70
2023-05-19T04:57:00,plm,9.63
2023-05-19T04:58:00,plm,17.66
2023-05-19T04:59:00,plm,13.49
2023-05-19T05:00:00,plm,9.45
2023-05-19T05:01:00,plm,13.56
2023-05-19T05:02:00,plm,13.57
2023-05-19T05:03:00,plm,9.43
2023-05-19T05:04:00,plm,13.47
2023-05-19T05:05:00,plm,13.58
2023-05-19T05:06:00,plm,13.54
2023-05-19T05:07:00,plm,13.48
2023-05-19T05:08:00,plm,9.46
2023-05-19T05:09:00,plm,17.51
2023-05-19T05:10:00,plm,9.36
2023-05-19T05:11:00,plm,13.38
2023-05-19T05:12:00,plm,13.47
2023-05-19T05:13:00,plm,13.29
2023-05-19T05:14:00,plm,13.36
2023-05-19T05:15:00,plm,8.71
2023-05-19T05:16:00,plm,17.01
2023-05-19T05:17:00,plm,12.81
2023-05-19T05:18:00,plm,12.80
2023-05-19T05:19:00,plm,13.42
2023-05-19T05:20:00,plm,13.54
2023-05-19T05:21:00,plm,17.57
2023-05-19T05:22:00,plm,9.51
2023-05-19T05:23:00,plm,13.68
2023-05-19T05:24:00,plm,17.72
2023-05-19T05:25:00,plm,9.62
2023-05-19T05:26:00,plm,13.62
2023-05-19T05:27:00,plm,13.60
2023-05-19T05:28:00,plm,13.08
2023-05-19T05:29:00,plm,13.02
2023-05-19T05:30:00,plm,9.03
2023-05-19T05:31:00,plm,9.01
2023-05-19T05:32:00,plm,9.01
2023-05-19T05:33:00,plm,8.44
2023-05-19T05:34:00,plm,8.41
2023-05-19T05:35:00,plm,8.40
2023-05-19T05:36:00,plm,8.39
2023-05-19T05:37:00,plm,8.36
2023-05-19T05:38:00,plm,8.42
2023-05-19T05:39:00,plm,8.42
2023-05-19T05:40:00,plm,8.42
2023-05-19T05:41:00,plm,9.57
2023-05-19T05:42:00,plm,9.58
2023-05-19T05:43:00,plm,9.53
2023-05-19T05:44:00,plm,8.19
2023-05-19T05:45:00,plm,8.19
2023-05-19T05:46:00,plm,8.13
2023-05-19T05:47:00,plm,8.09
2023-05-19T05:48:00,plm,8.07
2023-05-19T05:49:00,plm,8.09
2023-05-19T05:50:00,plm,8.21
2023-05-19T05:51:00,plm,8.20
2023-05-19T05:52:00,plm,8.24
2023-05-19T05:53:00,plm,8.20
2023-05-19T05:54:00,plm,8.19
2023-05-19T05:55:00,plm,8.19
2023-05-19T05:56:00,plm,8.17
2023-05-19T05:57:00,plm,8.20
2023-05-19T05:58:00,plm,8.25
2023-05-19T05:59:00,plm,9.04
2023-05-19T06:00:00,plm,9.07
2023-05-19T06:01:00,plm,9.13
2023-05-19T06:02:00,plm,9.05
2023-05-19T06:03:00,plm,9.06
2023-05-19T06:04:00,plm,9.15
2023-05-19T06:05:00,plm,9.12
2023-05-19T06:06:00,plm,9.17
2023-05-19T06:07:00,plm,8.43
2023-05-19T06:08:00,plm,8.42
2023-05-19T06:09:00,plm,8.48
2023-05-19T06:10:00,plm,8.48
2023-05-19T06:11:00,plm,8.44
2023-05-19T06:12:00,plm,8.44
2023-05-19T06:13:00,plm,8.39
2023-05-19T06:14:00,plm,8.36
2023-05-19T06:15:00,plm,8.34
2023-05-19T06:16:00,plm,8.33
2023-05-19T06:17:00,plm,8.28
2023-05-19T06:18:00,plm,8.30
2023-05-19T06:19:00,plm,8.29
2023-05-19T06:20:00,plm,8.21
2023-05-19T06:21:00,plm,8.24
2023-05-19T06:22:00,plm,8.21
2023-05-19T06:23:00,plm,8.21
2023-05-19T06:24:00,plm,8.08
2023-05-19T06:25:00,plm,8.07
2023-05-19T06:26:00,plm,8.07
2023-05-19T06:27:00,plm,8.12
2023-05-19T06:28:00,plm,8.18
2023-05-19T06:29:00,plm,8.23
2023-05-19T06:30:00,plm,8.21
2023-05-19T06:31:00,plm,8.84
2023-05-19T06:32:00,plm,8.87
2023-05-19T06:33:00,plm,8.88
2023-05-19T06:34:00,plm,8.88
2023-05-19T06:35:00,plm,8.92
2023-05-19T06:36:00,plm,8.99
2023-05-19T06:37:00,plm,9.02
2023-05-19T06:38:00,plm,9.06
2023-05-19T06:39:00,plm,8.98
2023-05-19T06:40:00,plm,8.97
2023-05-19T06:41:00,plm,8.90
2023-05-19T06:42:00,plm,9.09
2023-05-19T06:43:00,plm,9.03
2023-05-19T06:44:00,plm,8.34
2023-05-19T06:45:00,plm,18.76
2023-05-19T06:46:00,plm,8.33
2023-05-19T06:47:00,plm,8.33
2023-05-19T06:48:00,plm,8.37
2023-05-19T06:49:00,plm,8.40
2023-05-19T06:50:00,plm,8.43
2023-05-19T06:51:00,plm,8.44
2023-05-19T06:52:00,plm,8.44
2023-05-19T06:53:00,plm,8.44
2023-05-19T06:54:00,plm,8.46
2023-05-19T06:55:00,plm,8.45
2023-05-19T06:56:00,plm,8.46
2023-05-19T06:57:00,plm,8.41
2023-05-19T06:58:00,plm,8.39
2023-05-19T06:59:00,plm,8.40
2023-05-19T07:00:00,plm,8.47
2023-05-19T07:01:00,plm,8.44
2023-05-19T07:02:00,plm,8.41
2023-05-19T07:03:00,plm,8.32
2023-05-19T07:04:00,plm,8.40
2023-05-19T07:05:00,plm,8.56
2023-05-19T07:06:00,plm,8.49
2023-05-19T07:07:00,plm,8.34
2023-05-19T07:08:00,plm,17.74
2023-05-19T07:09:00,plm,8.55
2023-05-19T07:10:00,plm,17.59
2023-05-19T07:11:00,plm,17.48
2023-05-19T07:12:00,plm,8.47
2023-05-19T07:13:00,plm,8.47
2023-05-19T07:14:00,plm,8.46
2023-05-19T07:15:00,plm,8.48
2023-05-19T07:16:00,plm,8.39
2023-05-19T07:17:00,plm,8.28
2023-05-19T07:18:00,plm,8.20
2023-05-19T07:19:00,plm,8.22
2023-05-19T07:20:00,plm,8.20
2023-05-19T07:21:00,plm,8.20
2023-05-19T07:22:00,plm,8.26
2023-05-19T07:23:00,plm,15.68
2023-05-19T07:24:00,plm,8.21
2023-05-19T07:25:00,plm,8.26
2023-05-19T07:26:00,plm,8.31
2023-05-19T07:27:00,plm,8.32
2023-05-19T07:28:00,plm,8.25
2023-05-19T07:29:00,plm,8.24
2023-05-19T07:30:00,plm,8.18
2023-05-19T07:31:00,plm,8.19
2023-05-19T07:32:00,plm,8.30
2023-05-19T07:33:00,plm,8.31
2023-05-19T07:34:00,plm,8.24
2023-05-19T07:35:00,plm,8.23
2023-05-19T07:36:00,plm,8.24
2023-05-19T07:37:00,plm,8.88
2023-05-19T07:38:00,plm,9.11
2023-05-19T07:39:00,plm,9.04
2023-05-19T07:40:00,plm,9.03
2023-05-19T07:41:00,plm,9.07
2023-05-19T07:42:00,plm,9.05
2023-05-19T07:43:00,plm,9.20
2023-05-19T07:44:00,plm,9.26
2023-05-19T07:45:00,plm,8.59
2023-05-19T07:46:00,plm,8.61
2023-05-19T07:47:00,plm,8.66
2023-05-19T07:48:00,plm,8.40
2023-05-19T07:49:00,plm,8.41
2023-05-19T07:50:00,plm,8.32
2023-05-19T07:51:00,plm,8.16
2023-05-19T07:52:00,plm,8.19
2023-05-19T07:53:00,plm,8.15
2023-05-19T07:54:00,plm,8.20
2023-05-19T07:55:00,plm,8.16
2023-05-19T07:56:00,plm,8.15
2023-05-19T07:57:00,plm,8.15
2023-05-19T07:58:00,plm,8.16
2023-05-19T07:59:00,plm,8.09
2023-05-19T08:00:00,plm,8.81
2023-05-19T08:01:00,plm,8.83
2023-05-19T08:02:00,plm,8.78
2023-05-19T08:03:00,plm,8.73
2023-05-19T08:04:00,plm,8.72
2023-05-19T08:05:00,plm,8.73
2023-05-19T08:06:00,plm,8.76
2023-05-19T08:07:00,plm,8.81
2023-05-19T08:08:00,plm,8.86
2023-05-19T08:09:00,plm,8.83
2023-05-19T08:10:00,plm,8.82
2023-05-19T08:11:00,plm,8.12
2023-05-19T08:12:00,plm,6.90
2023-05-19T08:13:00,plm,6.88
2023-05-19T08:14:00,plm,6.91
2023-05-19T08:15:00,plm,19.17
2023-05-19T08:16:00,plm,6.95
2023-05-19T08:17:00,plm,6.87
2023-05-19T08:18:00,plm,6.81
2023-05-19T08:19:00,plm,6.88
2023-05-19T08:20:00,plm,6.69
2023-05-19T08:21:00,plm,6.68
2023-05-19T08:22:00,plm,6.69
2023-05-19T08:23:00,plm,6.69
2023-05-19T08:24:00,plm,6.69
2023-05-19T08:25:00,plm,6.71
2023-05-19T08:26:00,plm,6.64
2023-05-19T08:27:00,plm,6.71
2023-05-19T08:28:00,plm,6.69
2023-05-19T08:29:00,plm,6.70
2023-05-19T08:30:00,plm,6.68
2023-05-19T08:31:00,plm,6.68
2023-05-19T08:32:00,plm,6.60
2023-05-19T08:33:00,plm,6.46
2023-05-19T08:34:00,plm,6.41
2023-05-19T08:35:00,plm,6.50
2023-05-19T08:36:00,plm,6.48
2023-05-19T08:37:00,plm,6.42
2023-05-19T08:38:00,plm,6.46
2023-05-19T08:39:00,plm,6.47
2023-05-19T08:40:00,plm,6.58
2023-05-19T08:41:00,plm,6.56
2023-05-19T08:42:00,plm,6.57
2023-05-19T08:43:00,plm,6.63
2023-05-19T08:44:00,plm,6.68
2023-05-19T08:45:00,plm,6.71
2023-05-19T08:46:00,plm,6.78
2023-05-19T08:47:00,plm,6.64
2023-05-19T08:48:00,plm,6.64
2023-05-19T08:49:00,plm,6.71
2023-05-19T08:50:00,plm,6.75
2023-05-19T08:51:00,plm,6.92
2023-05-19T08:52:00,plm,6.91
2023-05-19T08:53:00,plm,16.11
2023-05-19T08:54:00,plm,15.92
2023-05-19T08:55:00,plm,15.76
2023-05-19T08:56:00,plm,6.83
2023-05-19T08:57:00,plm,6.90
2023-05-19T08:58:00,plm,6.84
2023-05-19T08:59:00,plm,6.88
2023-05-19T09:00:00,plm,6.75
2023-05-19T09:01:00,plm,6.74
2023-05-19T09:02:00,plm,6.80
2023-05-19T09:03:00,plm,6.80
2023-05-19T09:04:00,plm,6.76
2023-05-19T09:05:00,plm,6.69
2023-05-19T09:06:00,plm,6.69
2023-05-19T09:07:00,plm,6.70
2023-05-19T09:08:00,plm,6.70
2023-05-19T09:09:00,plm,6.81
2023-05-19T09:10:00,plm,6.74
2023-05-19T09:11:00,plm,7.00
2023-05-19T09:12:00,plm,7.65
2023-05-19T09:13:00,plm,7.69
2023-05-19T09:14:00,plm,7.68
2023-05-19T09:15:00,plm,7.70
2023-05-19T09:16:00,plm,6.88
2023-05-19T09:17:00,plm,6.86
2023-05-19T09:18:00,plm,6.90
2023-05-19T09:19:00,plm,6.90
2023-05-19T09:20:00,plm,6.84
2023-05-19T09:21:00,plm,6.95
2023-05-19T09:22:00,plm,6.93
2023-05-19T09:23:00,plm,6.94
2023-05-19T09:24:00,plm,6.86
2023-05-19T09:25:00,plm,6.88
2023-05-19T09:26:00,plm,6.87
2023-05-19T09:27:00,plm,6.87
2023-05-19T09:28:00,plm,6.88
2023-05-19T09:29:00,plm,6.70
2023-05-19T09:30:00,plm,6.86
2023-05-19T09:31:00,plm,6.75
2023-05-19T09:32:00,plm,6.76
2023-05-19T09:33:00,plm,6.84
2023-05-19T09:34:00,plm,6.76
2023-05-19T09:35:00,plm,6.78
2023-05-19T09:36:00,plm,6.77
2023-05-19T09:37:00,plm,6.88
2023-05-19T09:38:00,plm,6.86
2023-05-19T09:39:00,plm,6.87
2023-05-19T09:40:00,plm,6.89
2023-05-19T09:41:00,plm,6.97
2023-05-19T09:42:00,plm,6.93
2023-05-19T09:43:00,plm,6.96
2023-05-19T09:44:00,plm,7.00
2023-05-19T09:45:00,plm,7.00
2023-05-19T09:46:00,plm,7.03
2023-05-19T09:47:00,plm,7.06
2023-05-19T09:48:00,plm,7.06
2023-05-19T09:49:00,plm,7.10
2023-05-19T09:50:00,plm,7.07
2023-05-19T09:51:00,plm,7.04
2023-05-19T09:52:00,plm,6.95
2023-05-19T09:53:00,plm,6.95
2023-05-19T09:54:00,plm,6.92
2023-05-19T09:55:00,plm,7.32
2023-05-19T09:56:00,plm,7.17
2023-05-19T09:57:00,plm,6.99
2023-05-19T09:58:00,plm,6.92
2023-05-19T09:59:00,plm,6.82
2023-05-19T10:00:00,plm,6.80
2023-05-19T10:01:00,plm,6.75
2023-05-19T10:02:00,plm,6.75
2023-05-19T10:03:00,plm,6.83
2023-05-19T10:04:00,plm,6.81
2023-05-19T10:05:00,plm,6.78
2023-05-19T10:06:00,plm,6.76
2023-05-19T10:07:00,plm,6.75
2023-05-19T10:08:00,plm,6.76
2023-05-19T10:09:00,plm,6.75
2023-05-19T10:10:00,plm,18.06
2023-05-19T10:11:00,plm,22.24
2023-05-19T10:12:00,plm,11.12
2023-05-19T10:13:00,plm,11.08
2023-05-19T10:14:00,plm,11.10
2023-05-19T10:15:00,plm,11.50
2023-05-19T10:16:00,plm,11.15
2023-05-19T10:17:00,plm,11.16
2023-05-19T10:18:00,plm,11.15
2023-05-19T10:19:00,plm,11.11
2023-05-19T10:20:00,plm,11.04
2023-05-19T10:21:00,plm,7.03
2023-05-19T10:22:00,plm,7.03
2023-05-19T10:23:00,plm,10.99
2023-05-19T10:24:00,plm,10.94
2023-05-19T10:25:00,plm,6.85
2023-05-19T10:26:00,plm,6.86
2023-05-19T10:27:00,plm,10.89
2023-05-19T10:28:00,plm,10.86
2023-05-19T10:29:00,plm,6.85
2023-05-19T10:30:00,plm,6.87
2023-05-19T10:31:00,plm,10.96
2023-05-19T10:32:00,plm,10.85
2023-05-19T10:33:00,plm,10.84
2023-05-19T10:34:00,plm,6.92
2023-05-19T10:35:00,plm,6.87
2023-05-19T10:36:00,plm,10.90
2023-05-19T10:37:00,plm,9.94
2023-05-19T10:38:00,plm,6.82
2023-05-19T10:39:00,plm,6.81
2023-05-19T10:40:00,plm,10.70
2023-05-19T10:41:00,plm,10.78
2023-05-19T10:42:00,plm,6.83
2023-05-19T10:43:00,plm,6.83
2023-05-19T10:44:00,plm,10.82
2023-05-19T10:45:00,plm,6.90
2023-05-19T10:46:00,plm,7.28
2023-05-19T10:47:00,plm,7.10
2023-05-19T10:48:00,plm,10.97
2023-05-19T10:49:00,plm,6.96
2023-05-19T10:50:00,plm,6.96
2023-05-19T10:51:00,plm,6.97
2023-05-19T10:52:00,plm,10.92
2023-05-19T10:53:00,plm,6.92
2023-05-19T10:54:00,plm,6.92
2023-05-19T10:55:00,plm,8.68
2023-05-19T10:56:00,plm,10.87
2023-05-19T10:57:00,plm,7.07
2023-05-19T10:58:00,plm,7.88
2023-05-19T10:59:00,plm,11.79
2023-05-19T11:00:00,plm,11.78
2023-05-19T11:01:00,plm,7.81
2023-05-19T11:02:00,plm,7.71
2023-05-19T11:03:00,plm,11.66
2023-05-19T11:04:00,plm,12.27
2023-05-19T11:05:00,plm,7.06
2023-05-19T11:06:00,plm,8.28
2023-05-19T11:07:00,plm,12.56
2023-05-19T11:08:00,plm,11.23
2023-05-19T11:09:00,plm,7.29
2023-05-19T11:10:00,plm,7.28
2023-05-19T11:11:00,plm,7.33
2023-05-19T11:12:00,plm,18.46
2023-05-19T11:13:00,plm,8.06
2023-05-19T11:14:00,plm,6.94
2023-05-19T11:15:00,plm,6.95
2023-05-19T11:16:00,plm,16.35
2023-05-19T11:17:00,plm,16.22
2023-05-19T11:18:00,plm,15.97
2023-05-19T11:19:00,plm,6.82
2023-05-19T11:20:00,plm,6.88
2023-05-19T11:21:00,plm,6.87
2023-05-19T11:22:00,plm,6.86
2023-05-19T11:23:00,plm,6.82
2023-05-19T11:24:00,plm,6.83
2023-05-19T11:25:00,plm,6.80
2023-05-19T11:26:00,plm,6.83
2023-05-19T11:27:00,plm,6.89
2023-05-19T11:28:00,plm,6.94
2023-05-19T11:29:00,plm,6.90
2023-05-19T11:30:00,plm,6.93
2023-05-19T11:31:00,plm,6.99
2023-05-19T11:32:00,plm,6.84
2023-05-19T11:33:00,plm,6.98
2023-05-19T11:34:00,plm,6.97
2023-05-19T11:35:00,plm,6.97
2023-05-19T11:36:00,plm,6.99
2023-05-19T11:37:00,plm,6.12
2023-05-19T11:38:00,plm,6.13
2023-05-19T11:39:00,plm,6.05
2023-05-19T11:40:00,plm,5.84
2023-05-19T11:41:00,plm,5.99
2023-05-19T11:42:00,plm,5.96
2023-05-19T11:43:00,plm,6.13
2023-05-19T11:44:00,plm,5.97
2023-05-19T11:45:00,plm,5.79
2023-05-19T11:46:00,plm,6.02
2023-05-19T11:47:00,plm,6.15
2023-05-19T11:48:00,plm,5.79
2023-05-19T11:49:00,plm,6.05
2023-05-19T11:50:00,plm,5.94
2023-05-19T11:51:00,plm,5.98
2023-05-19T11:52:00,plm,5.97
2023-05-19T11:53:00,plm,6.52
2023-05-19T11:54:00,plm,5.94
2023-05-19T11:55:00,plm,6.11
2023-05-19T11:56:00,plm,5.96
2023-05-19T11:57:00,plm,6.00
2023-05-19T11:58:00,plm,5.98
2023-05-19T11:59:00,plm,6.08
2023-05-19T12:00:00,plm,6.24
2023-05-19T12:01:00,plm,6.51
2023-05-19T12:02:00,plm,6.44
2023-05-19T12:03:00,plm,6.43
2023-05-19T12:04:00,plm,6.38
2023-05-19T12:05:00,plm,5.90
2023-05-19T12:06:00,plm,5.90
2023-05-19T12:07:00,plm,10.27
2023-05-19T12:08:00,plm,10.41
2023-05-19T12:09:00,plm,10.35
2023-05-19T12:10:00,plm,10.40
2023-05-19T12:11:00,plm,10.33
2023-05-19T12:12:00,plm,10.41
2023-05-19T12:13:00,plm,10.33
2023-05-19T12:14:00,plm,10.05
2023-05-19T12:15:00,plm,10.49
2023-05-19T12:16:00,plm,9.99
2023-05-19T12:17:00,plm,11.06
2023-05-19T12:18:00,plm,11.35
2023-05-19T12:19:00,plm,11.00
2023-05-19T12:20:00,plm,11.18
2023-05-19T12:21:00,plm,11.08
2023-05-19T12:22:00,plm,11.23
2023-05-19T12:23:00,plm,10.58
2023-05-19T12:24:00,plm,10.46
2023-05-19T12:25:00,plm,10.38
2023-05-19T12:26:00,plm,10.32
2023-05-19T12:27:00,plm,10.42
2023-05-19T12:28:00,plm,10.43
2023-05-19T12:29:00,plm,10.31
2023-05-19T12:30:00,plm,10.20
2023-05-19T12:31:00,plm,10.21
2023-05-19T12:32:00,plm,10.55
2023-05-19T12:33:00,plm,10.80
2023-05-19T12:34:00,plm,10.68
2023-05-19T12:35:00,plm,10.65
2023-05-19T12:36:00,plm,10.62
2023-05-19T12:37:00,plm,9.98
2023-05-19T12:38:00,plm,5.92
2023-05-19T12:39:00,plm,6.43
2023-05-19T12:40:00,plm,10.01
2023-05-19T12:41:00,plm,10.06
2023-05-19T12:42:00,plm,7.46
2023-05-19T12:43:00,plm,7.53
2023-05-19T12:44:00,plm,11.74
2023-05-19T12:45:00,plm,11.68
2023-05-19T12:46:00,plm,10.45
2023-05-19T12:47:00,plm,6.28
2023-05-19T12:48:00,plm,6.26
2023-05-19T12:49:00,plm,10.35
2023-05-19T12:50:00,plm,10.39
2023-05-19T12:51:00,plm,6.33
2023-05-19T12:52:00,plm,6.25
2023-05-19T12:53:00,plm,10.30
2023-05-19T12:54:00,plm,10.35
2023-05-19T12:55:00,plm,6.30
2023-05-19T12:56:00,plm,6.49
2023-05-19T12:57:00,plm,6.42
2023-05-19T12:58:00,plm,10.38
2023-05-19T12:59:00,plm,22.88
2023-05-19T13:00:00,plm,8.21
2023-05-19T13:01:00,plm,6.19
2023-05-19T13:02:00,plm,15.59
2023-05-19T13:03:00,plm,19.43
2023-05-19T13:04:00,plm,15.32
2023-05-19T13:05:00,plm,6.29
2023-05-19T13:06:00,plm,6.25
2023-05-19T13:07:00,plm,5.91
2023-05-19T13:08:00,plm,5.99
2023-05-19T13:09:00,plm,5.97
2023-05-19T13:10:00,plm,5.99
2023-05-19T13:11:00,plm,5.99
2023-05-19T13:12:00,plm,5.91
2023-05-19T13:13:00,plm,5.85
2023-05-19T13:14:00,plm,5.85
2023-05-19T13:15:00,plm,5.86
2023-05-19T13:16:00,plm,5.86
2023-05-19T13:17:00,plm,5.94
2023-05-19T13:18:00,plm,6.13
2023-05-19T13:19:00,plm,21.53
2023-05-19T13:20:00,plm,10.60
2023-05-19T13:21:00,plm,10.99
2023-05-19T13:22:00,plm,11.62
2023-05-19T13:23:00,plm,11.66
2023-05-19T13:24:00,plm,11.79
2023-05-19T13:25:00,plm,11.73
2023-05-19T13:26:00,plm,11.74
2023-05-19T13:27:00,plm,11.21
2023-05-19T13:28:00,plm,11.24
2023-05-19T13:29:00,plm,11.39
2023-05-19T13:30:00,plm,10.79
2023-05-19T13:31:00,plm,11.48
2023-05-19T13:32:00,plm,20.11
2023-05-19T13:33:00,plm,21.19